QPF
0.00 0.00 0.00 0.00 0.00 0.00 0.00 0.00 0.00 0.00 0.00 0.00 0.00 0.00 0.00 0.00 0.00 0.00 0.00 0.00 0.00 0.00 0.00 0.00 0.00 0.00 0.00 0.00 0.00 0.00 0.00 0.00 0.00 0.00 0.00 0.00 0.00 0.00 0.00 0.00 0.00 0.00 0.00 0.00
0.00 0.00 0.00 0.00 0.00 0.00 0.00 0.00 0.00 0.00 0.00 0.00 0.00 0.00 0.00 0.00 0.00 0.00 0.00 0.00 0.00 0.00 0.00 0.00 0.00 0.00 0.00 0.00 0.00 0.00 0.00 0.00 0.00 0.00 0.00 0.00 0.00 0.00 0.00 0.00 0.00 0.00 0.00 0.00
0.00 0.00 0.00 0.00 0.00 0.00 0.00 0.00 0.00 0.00 0.00 0.00 0.00 0.00 0.00 0.00 0.00 0.00 0.00 0.00 0.00 0.00 0.00 0.00 0.00 0.00 0.00 0.00 0.00 0.00 0.00 0.00 0.00 0.00 0.00 0.00 0.00 0.00 0.00 0.00 0.00 0.00 0.00 0.00
0.00 0.00 0.00 0.00 0.00 0.00 0.00 0.00 0.00 0.00 0.00 0.00 0.00 0.00 0.00 0.00 0.00 0.00 0.00 0.00 0.00 0.00 0.00 0.00 0.00 0.00 0.00 0.00 0.00 0.00 0.00 0.00 0.00 0.00 0.00 0.00 0.00 0.00 0.00 0.00 0.00 0.00 0.00 0.00
0.00 0.00 0.00 0.00 0.00 0.00 0.00 0.00 0.00 0.00 0.00 0.00 0.00 0.00 0.00 0.00 0.00 0.00 0.00 0.00 0.00 0.00 0.00 0.00 0.00 0.00 0.00 0.00 0.00 0.00 0.00 0.00 0.00 0.00 0.00 0.00 0.00 0.00 0.00 0.00 0.00 0.00 0.00 0.00
0.00 0.00 0.00 0.00 0.00 0.00 0.00 0.00 0.00 0.00 0.00 0.00 0.00 0.00 0.00 0.00 0.00 0.00 0.00 0.00 0.00 0.00 0.00 0.00 0.00 0.00 0.00 0.00 0.00 0.00 0.00 0.00 0.00 0.00 0.00 0.00 0.00 0.00 0.00 0.00 0.00 0.00 0.00 0.00
0.00 0.00 0.00 0.00 0.00 0.00 0.00 0.00 0.00 0.00 0.00 0.00 0.00 0.00 0.00 0.00 0.00 0.00 0.00 0.00 0.00 0.00 0.00 0.00 0.00 0.00 0.00 0.00 0.00 0.00 0.00 0.00 0.00 0.00 0.00 0.00 0.00 0.00 0.00 0.00 0.00 0.00 0.00 0.00
0.00 0.00 0.00 0.00 0.00 0.00 0.00 0.00 0.00 0.00 0.00 0.00 0.00 0.00 0.00 0.00 0.00 0.00 0.00 0.00 0.00 0.00 0.00 0.00 0.00 0.00 0.00 0.00 0.00 0.00 0.00 0.00 0.00 0.00 0.00 0.00 0.00 0.00 0.00 0.00 0.00 0.00 0.00 0.00
0.00 0.00 0.00 0.00 0.00 0.00 0.00 0.00 0.00 0.00 0.00 0.00 0.00 0.00 0.00 0.00 0.00 0.00 0.00 0.00 0.00 0.00 0.00 0.00 0.00 0.00 0.00 0.00 0.00 0.00 0.00 0.00 0.00 0.00 0.00 0.00 0.00 0.00 0.00 0.00 0.00 0.00 0.00 0.00
0.00 0.00 0.00 0.00 0.00 0.00 0.00 0.00 0.00 0.00 0.00 0.00 0.00 0.00 0.00 0.00 0.00 0.00 0.00 0.00 0.00 0.00 0.00 0.00 0.00 0.00 0.00 0.00 0.00 0.00 0.00 0.00 0.00 0.00 0.00 0.00 0.00 0.00 0.00 0.00 0.00 0.00 0.00 0.00
0.00 0.00 0.00 0.00 0.00 0.00 0.00 0.00 0.00 0.00 0.00 0.00 0.00 0.00 0.00 0.00 0.00 0.00 0.00 0.00 0.00 0.00 0.00 0.00 0.00 0.00 0.00 0.00 0.00 0.00 0.00 0.00 0.00 0.00 0.00 0.00 0.00 0.00 0.00 0.00 0.00 0.00 0.00 0.00
0.00 0.00 0.00 0.00 0.00 0.00 0.00 0.00 0.00 0.00 0.00 0.00 0.01 0.00 0.00 0.00 0.00 0.00 0.00 0.00 0.00 0.00 0.00 0.00 0.00 0.00 0.00 0.00 0.00 0.00 0.00 0.00 0.00 0.00 0.00 0.00 0.00 0.00 0.00 0.00 0.00 0.00 0.00 0.00
0.00 0.00 0.00 0.00 0.00 0.00 0.00 0.00 0.00 0.00 0.00 0.00 0.01 0.00 0.00 0.00 0.00 0.00 0.00 0.00 0.00 0.00 0.00 0.00 0.00 0.00 0.00 0.00 0.00 0.00 0.00 0.00 0.00 0.00 0.00 0.00 0.00 0.00 0.00 0.00 0.00 0.00 0.00 0.00
0.00 0.00 0.00 0.00 0.00 0.00 0.00 0.00 0.00 0.00 0.00 0.00 0.00 0.00 0.00 0.00 0.00 0.00 0.00 0.00 0.00 0.00 0.00 0.00 0.00 0.00 0.00 0.00 0.00 0.00 0.00 0.00 0.00 0.00 0.00 0.00 0.00 0.00 0.00 0.00 0.00 0.00 0.00 0.00
0.00 0.00 0.00 0.00 0.00 0.00 0.00 0.00 0.00 0.00 0.00 0.00 0.00 0.00 0.00 0.00 0.00 0.00 0.00 0.00 0.00 0.00 0.00 0.00 0.00 0.00 0.00 0.00 0.00 0.00 0.00 0.00 0.00 0.00 0.00 0.00 0.00 0.00 0.00 0.00 0.00 0.00 0.00 0.00
0.00 0.00 0.00 0.00 0.00 0.00 0.00 0.00 0.00 0.00 0.00 0.00 0.00 0.00 0.00 0.00 0.00 0.00 0.00 0.00 0.00 0.00 0.00 0.00 0.00 0.00 0.00 0.00 0.00 0.00 0.00 0.00 0.00 0.00 0.00 0.00 0.00 0.00 0.00 0.00 0.00 0.00 0.00 0.00
0.00 0.00 0.00 0.00 0.00 0.00 0.00 0.00 0.00 0.00 0.00 0.00 0.00 0.00 0.00 0.00 0.00 0.00 0.00 0.00 0.00 0.00 0.00 0.00 0.00 0.00 0.00 0.00 0.00 0.00 0.00 0.00 0.00 0.00 0.00 0.00 0.00 0.00 0.00 0.00 0.00 0.00 0.00 0.00
0.00 0.00 0.00 0.00 0.00 0.00 0.00 0.00 0.00 0.00 0.00 0.00 0.00 0.00 0.00 0.00 0.00 0.00 0.00 0.00 0.00 0.00 0.00 0.00 0.00 0.00 0.00 0.00 0.00 0.00 0.00 0.00 0.00 0.00 0.00 0.00 0.00 0.00 0.00 0.00 0.00 0.00 0.00 0.00
0.00 0.00 0.00 0.00 0.00 0.00 0.00 0.00 0.00 0.00 0.00 0.00 0.00 0.00 0.00 0.00 0.00 0.00 0.00 0.00 0.00 0.00 0.00 0.00 0.00 0.00 0.00 0.00 0.00 0.00 0.00 0.00 0.00 0.00 0.00 0.00 0.00 0.00 0.00 0.00 0.00 0.00 0.00 0.00
0.00 0.00 0.00 0.00 0.00 0.00 0.00 0.00 0.00 0.00 0.00 0.00 0.00 0.00 0.00 0.00 0.00 0.00 0.00 0.00 0.00 0.00 0.00 0.00 0.00 0.00 0.00 0.00 0.00 0.00 0.00 0.00 0.00 0.00 0.00 0.00 0.00 0.00 0.00 0.00 0.00 0.00 0.00 0.00
0.00 0.00 0.00 0.00 0.00 0.00 0.00 0.00 0.00 0.00 0.00 0.00 0.00 0.00 0.00 0.00 0.00 0.00 0.00 0.00 0.00 0.00 0.00 0.00 0.00 0.00 0.00 0.00 0.00 0.00 0.00 0.00 0.00 0.00 0.00 0.00 0.00 0.00 0.00 0.00 0.00 0.00 0.00 0.00
0.00 0.00 0.00 0.00 0.00 0.00 0.00 0.00 0.00 0.00 0.00 0.00 0.00 0.00 0.00 0.00 0.00 0.00 0.00 0.00 0.00 0.00 0.00 0.00 0.00 0.00 0.00 0.00 0.00 0.00 0.00 0.00 0.00 0.00 0.00 0.00 0.00 0.00 0.00 0.00 0.00 0.00 0.00 0.00
0.00 0.00 0.00 0.00 0.00 0.00 0.00 0.00 0.00 0.00 0.00 0.00 0.00 0.00 0.00 0.00 0.00 0.00 0.00 0.00 0.00 0.00 0.00 0.00 0.00 0.00 0.00 0.00 0.00 0.00 0.00 0.00 0.00 0.00 0.00 0.00 0.00 0.00 0.00 0.00 0.00 0.00 0.00 0.00
0.00 0.00 0.00 0.00 0.00 0.00 0.00 0.00 0.00 0.00 0.00 0.00 0.00 0.00 0.00 0.00 0.00 0.00 0.00 0.00 0.00 0.00 0.00 0.00 0.00 0.00 0.00 0.00 0.00 0.00 0.00 0.00 0.00 0.00 0.00 0.00 0.00 0.00 0.00 0.00 0.00 0.00 0.00 0.00
0.00 0.00 0.00 0.00 0.00 0.00 0.00 0.00 0.00 0.00 0.00 0.00 0.00 0.00 0.00 0.00 0.00 0.00 0.00 0.00 0.00 0.00 0.00 0.00 0.00 0.00 0.00 0.00 0.00 0.00 0.00 0.00 0.00 0.00 0.00 0.00 0.00 0.00 0.00 0.00 0.00 0.00 0.00 0.00
0.00 0.00 0.00 0.00 0.00 0.00 0.00 0.00 0.00 0.00 0.00 0.00 0.00 0.00 0.00 0.00 0.00 0.00 0.00 0.00 0.00 0.00 0.00 0.00 0.00 0.00 0.00 0.00 0.00 0.00 0.00 0.00 0.00 0.00 0.00 0.00 0.00 0.00 0.00 0.00 0.00 0.00 0.00 0.00
MSLP
1016.97 1017.55 1017.63 1017.20 1017.31 1017.26 1017.45 1017.44 1017.25 1016.60 1015.92 1015.71 1015.38 1015.35 1014.55 1014.09 1013.77 1014.15 1015.13 1016.22 1017.29 1018.29 1018.87 1018.57 1018.34 1017.98 1017.38 1016.91 1016.34 1016.27 1015.93 1015.55 1015.16 1015.15 1015.43 1015.65 1015.76 1015.80 1015.84 1015.77 1015.89 1016.27 1016.60 1017.12
1017.50 1017.34 1016.53 1016.78 1017.00 1017.14 1017.25 1017.31 1017.10 1016.73 1015.98 1016.01 1015.76 1015.74 1014.58 1013.68 1014.91 1015.59 1016.34 1017.26 1018.10 1018.72 1019.00 1019.30 1019.10 1018.62 1018.61 1018.55 1018.00 1017.48 1017.24 1017.13 1016.81 1016.39 1016.30 1016.29 1016.34 1016.38 1016.39 1016.28 1016.23 1016.35 1016.72 1016.99
1016.97 1016.44 1016.35 1016.56 1016.72 1017.04 1017.02 1017.11 1017.00 1017.08 1016.66 1016.41 1016.45 1016.02 1015.12 1016.10 1016.18 1016.82 1017.84 1018.57 1019.12 1019.33 1019.48 1019.73 1019.85 1020.00 1019.88 1019.61 1019.37 1019.03 1018.59 1018.12 1018.02 1017.74 1017.22 1016.97 1016.90 1017.15 1017.51 1017.38 1017.17 1017.05 1016.97 1017.17
1016.78 1016.07 1016.19 1016.35 1016.54 1016.94 1017.31 1016.65 1016.92 1017.17 1017.59 1017.71 1017.34 1017.34 1016.22 1016.56 1017.22 1017.83 1018.85 1019.51 1020.00 1020.43 1020.54 1020.37 1020.58 1020.85 1020.76 1020.81 1020.41 1020.12 1019.76 1019.46 1019.18 1018.88 1018.67 1018.88 1018.93 1019.17 1019.46 1019.01 1018.56 1018.15 1017.82 1017.73
1016.31 1016.07 1016.14 1016.46 1016.35 1016.39 1016.76 1016.96 1017.46 1017.73 1018.41 1018.71 1018.25 1018.49 1016.48 1016.46 1017.75 1018.95 1019.78 1020.23 1020.91 1021.22 1021.27 1021.40 1021.66 1021.72 1021.57 1021.66 1021.39 1020.99 1020.74 1020.45 1020.31 1020.21 1020.12 1019.94 1019.98 1020.17 1019.96 1019.83 1019.80 1019.36 1018.84 1018.46
1016.24 1015.90 1016.00 1015.79 1015.76 1016.16 1016.85 1017.42 1017.85 1018.49 1019.32 1019.47 1018.38 1018.41 1016.97 1016.73 1017.09 1019.13 1020.22 1020.90 1021.46 1021.97 1021.95 1021.89 1022.17 1022.25 1022.36 1022.29 1022.36 1022.17 1021.77 1021.68 1021.47 1021.20 1021.05 1021.09 1021.18 1020.94 1020.74 1020.81 1020.90 1020.81 1020.37 1019.90
1016.25 1016.04 1015.76 1015.83 1016.30 1016.77 1017.30 1018.45 1019.11 1019.88 1020.53 1019.79 1018.98 1018.73 1017.26 1016.76 1017.23 1018.54 1020.22 1021.38 1021.84 1022.17 1022.34 1022.59 1022.74 1022.85 1022.94 1022.94 1022.87 1022.82 1022.71 1022.62 1022.56 1022.33 1022.04 1021.99 1022.11 1022.07 1022.05 1021.95 1021.92 1021.78 1021.45 1021.11
1016.82 1016.50 1016.20 1016.34 1016.51 1017.01 1017.80 1018.50 1019.73 1020.71 1021.33 1020.48 1019.60 1018.82 1017.94 1018.34 1018.47 1019.65 1020.85 1021.57 1022.11 1022.59 1022.80 1023.05 1023.21 1023.38 1023.39 1023.41 1023.39 1023.45 1023.48 1023.46 1023.25 1023.08 1022.96 1022.75 1022.58 1022.68 1022.63 1022.99 1022.93 1022.65 1022.42 1022.00
1016.73 1016.83 1016.60 1016.60 1016.73 1017.23 1018.06 1018.73 1019.40 1020.76 1021.92 1021.79 1019.90 1018.84 1019.18 1019.23 1019.64 1020.47 1021.17 1021.70 1022.22 1022.55 1022.86 1023.08 1023.20 1023.48 1023.68 1023.82 1023.95 1024.01 1023.88 1023.74 1023.59 1023.49 1023.47 1023.40 1023.52 1023.55 1023.31 1022.99 1023.00 1023.39 1023.05 1022.63
1016.88 1017.45 1017.11 1017.26 1017.29 1017.78 1018.01 1018.63 1019.75 1021.13 1022.20 1021.99 1020.18 1019.29 1018.84 1019.52 1020.06 1020.75 1021.27 1021.79 1022.27 1022.62 1023.10 1023.43 1023.65 1023.77 1024.05 1024.14 1024.30 1024.15 1024.18 1024.33 1024.17 1024.04 1023.71 1023.88 1023.93 1023.87 1023.75 1023.74 1023.74 1023.80 1023.18 1022.62
1017.44 1018.09 1018.38 1018.10 1018.16 1018.21 1018.93 1019.09 1019.78 1020.80 1021.69 1021.41 1020.85 1019.33 1018.34 1018.88 1019.81 1020.65 1021.61 1021.94 1022.23 1022.48 1022.79 1023.33 1023.80 1024.05 1024.28 1024.64 1024.70 1024.57 1024.61 1024.74 1024.65 1024.60 1024.64 1024.56 1024.03 1024.08 1024.04 1024.22 1024.19 1023.52 1022.95 1022.73
1017.81 1018.84 1019.45 1019.09 1018.49 1018.45 1018.95 1019.31 1020.03 1021.06 1021.42 1021.33 1020.72 1019.70 1018.75 1019.04 1019.73 1020.62 1021.34 1021.71 1022.14 1022.43 1022.90 1023.56 1023.99 1024.14 1024.46 1024.71 1024.70 1024.60 1024.69 1024.72 1024.84 1025.02 1024.96 1024.91 1024.66 1024.72 1024.83 1024.45 1024.06 1023.87 1023.32 1022.52
1018.46 1019.52 1020.61 1020.28 1020.01 1019.70 1019.93 1020.32 1020.81 1021.52 1021.92 1021.78 1021.88 1020.11 1019.46 1019.78 1020.35 1020.53 1021.00 1021.68 1022.23 1022.81 1023.31 1023.77 1023.95 1024.15 1024.25 1024.48 1024.44 1024.47 1024.68 1024.71 1024.56 1024.56 1024.67 1025.03 1024.65 1024.61 1024.77 1024.35 1023.98 1023.76 1023.31 1022.79
1019.20 1020.29 1021.05 1020.97 1021.16 1021.39 1021.55 1021.36 1021.60 1022.26 1022.73 1022.25 1021.17 1020.78 1019.80 1019.61 1020.58 1020.78 1021.09 1021.51 1022.42 1022.89 1023.16 1023.50 1023.77 1023.91 1024.17 1024.22 1024.25 1024.31 1024.28 1024.28 1024.43 1024.71 1024.82 1024.86 1024.82 1024.89 1024.55 1024.21 1024.00 1023.63 1023.33 1022.86
1020.56 1021.93 1022.51 1022.43 1022.51 1022.68 1022.51 1022.14 1021.96 1022.74 1022.36 1022.57 1020.78 1020.90 1020.00 1020.32 1020.46 1020.84 1021.16 1021.65 1022.24 1022.61 1022.82 1023.06 1023.48 1023.60 1023.69 1023.82 1023.78 1023.77 1023.83 1023.82 1023.91 1024.16 1024.32 1024.38 1024.35 1024.23 1024.12 1024.02 1023.88 1023.51 1023.17 1022.61
1021.18 1022.78 1023.87 1024.13 1023.78 1023.77 1023.35 1021.84 1022.28 1022.04 1022.01 1021.52 1021.22 1020.75 1020.66 1020.80 1020.90 1021.33 1021.35 1021.68 1022.09 1022.44 1022.55 1022.77 1023.04 1023.23 1023.22 1023.25 1023.25 1023.36 1023.57 1023.83 1024.06 1024.45 1024.56 1024.43 1024.33 1024.01 1023.65 1023.18 1022.77 1022.50 1022.16 1021.84
1022.66 1024.10 1026.04 1026.28 1025.58 1025.07 1024.46 1021.81 1021.35 1021.23 1020.89 1021.10 1021.46 1021.51 1021.74 1021.45 1021.39 1021.58 1021.67 1021.72 1021.98 1022.11 1022.27 1022.53 1022.69 1022.90 1023.02 1023.17 1023.36 1023.81 1024.19 1024.34 1024.51 1024.65 1024.44 1024.46 1024.35 1024.06 1023.76 1023.32 1022.86 1022.32 1021.81 1021.14
1023.40 1024.94 1026.46 1027.75 1027.90 1026.55 1022.33 1021.19 1020.81 1020.94 1021.14 1021.57 1022.17 1022.24 1022.02 1021.85 1021.81 1021.67 1021.52 1021.69 1021.90 1022.01 1022.26 1022.50 1022.64 1022.83 1023.08 1023.50 1023.94 1024.38 1024.56 1024.73 1024.83 1024.92 1025.01 1024.83 1024.65 1024.46 1024.04 1023.57 1023.01 1022.35 1021.81 1020.96
1023.61 1025.16 1027.35 1028.62 1028.32 1025.64 1022.70 1021.15 1020.86 1021.22 1021.50 1021.95 1022.28 1022.35 1022.13 1022.13 1022.02 1021.95 1021.55 1021.71 1021.76 1021.86 1022.02 1022.37 1022.63 1023.00 1023.58 1024.01 1024.42 1024.66 1024.87 1025.08 1025.18 1025.21 1025.19 1025.22 1025.27 1025.04 1024.62 1024.16 1023.56 1022.89 1022.18 1021.06
1024.36 1025.25 1026.96 1029.27 1028.23 1025.77 1022.69 1021.15 1020.77 1021.49 1021.82 1021.80 1021.92 1022.08 1022.16 1022.14 1022.54 1022.14 1021.62 1021.48 1021.43 1021.50 1021.93 1022.61 1023.14 1023.60 1024.01 1024.55 1024.80 1025.06 1025.30 1025.50 1025.58 1025.51 1025.50 1025.52 1025.48 1025.30 1024.97 1024.49 1023.83 1023.07 1022.41 1021.15
1025.73 1026.23 1026.42 1026.61 1026.73 1024.27 1022.13 1021.13 1021.08 1021.75 1021.61 1021.30 1021.77 1021.64 1021.77 1021.90 1021.55 1021.24 1021.11 1021.17 1021.13 1021.49 1022.13 1022.84 1023.42 1024.03 1024.60 1024.94 1025.24 1025.58 1025.76 1025.84 1025.84 1025.90 1025.82 1025.69 1025.57 1025.29 1024.87 1024.17 1023.62 1022.91 1022.06 1021.07
1024.39 1025.36 1025.80 1026.05 1025.44 1023.21 1020.85 1021.09 1021.00 1020.25 1020.35 1020.76 1020.99 1020.97 1021.10 1020.99 1020.83 1020.87 1020.79 1020.90 1021.25 1021.78 1022.51 1023.18 1023.86 1024.43 1024.88 1025.30 1025.77 1026.10 1026.17 1026.06 1026.15 1026.07 1025.99 1025.77 1025.38 1024.98 1024.34 1023.74 1022.94 1022.34 1021.60 1020.54
1023.03 1022.19 1022.67 1022.60 1021.40 1019.88 1019.51 1019.11 1019.08 1019.37 1019.70 1019.91 1020.07 1020.08 1020.18 1020.35 1020.35 1020.30 1020.51 1020.84 1021.33 1021.95 1022.68 1023.40 1024.02 1024.72 1025.24 1025.70 1026.04 1026.26 1026.23 1026.23 1026.22 1026.33 1026.08 1025.44 1024.86 1024.37 1023.84 1023.22 1022.35 1021.61 1020.77 1019.84
1021.13 1020.36 1020.76 1020.31 1019.52 1019.09 1018.68 1018.31 1018.33 1018.35 1018.72 1018.64 1018.85 1019.04 1019.30 1019.79 1019.74 1019.91 1020.19 1020.67 1021.36 1022.19 1023.00 1023.67 1024.32 1025.05 1025.57 1025.90 1026.22 1026.45 1026.28 1026.24 1026.28 1026.13 1025.52 1024.81 1024.29 1023.69 1023.22 1022.63 1021.85 1020.98 1019.93 1018.96
1019.32 1019.15 1018.68 1018.36 1018.26 1017.91 1017.51 1017.25 1017.17 1017.45 1017.66 1017.89 1018.06 1018.25 1018.38 1018.83 1019.17 1019.59 1020.17 1021.05 1021.78 1022.63 1023.04 1024.24 1024.85 1025.38 1025.64 1025.94 1026.31 1026.22 1026.12 1026.00 1026.05 1025.56 1024.89 1024.19 1023.65 1023.09 1022.55 1022.01 1021.14 1020.17 1019.05 1018.20
1017.45 1016.74 1017.39 1016.56 1016.33 1016.50 1016.22 1015.97 1016.18 1016.77 1017.06 1017.24 1017.61 1017.83 1018.07 1018.55 1019.09 1019.79 1020.71 1021.47 1022.24 1023.10 1023.74 1024.59 1025.21 1025.54 1025.90 1025.93 1026.07 1026.03 1025.88 1025.70 1025.69 1025.17 1024.32 1023.65 1022.93 1022.35 1021.83 1020.98 1020.00 1018.88 1017.90 1016.65
Thickness
5650 5634 5631 5637 5638 5643 5640 5634 5628 5637 5649 5643 5647 5642 5661 5665 5667 5671 5665 5654 5646 5638 5634 5635 5636 5637 5642 5643 5647 5646 5650 5653 5656 5655 5654 5652 5651 5649 5648 5647 5645 5644 5643 5639
5631 5625 5643 5641 5643 5639 5632 5624 5620 5627 5641 5639 5634 5634 5651 5665 5651 5644 5639 5635 5632 5628 5625 5620 5619 5621 5620 5620 5624 5627 5628 5629 5633 5636 5635 5635 5634 5634 5634 5633 5633 5632 5630 5627
5620 5634 5640 5638 5631 5625 5625 5619 5617 5615 5624 5627 5621 5617 5635 5626 5627 5627 5619 5612 5608 5606 5608 5606 5604 5601 5599 5599 5602 5605 5608 5611 5611 5614 5619 5619 5619 5616 5613 5614 5615 5616 5616 5615
5621 5633 5629 5625 5619 5613 5605 5622 5615 5615 5603 5592 5612 5585 5618 5616 5608 5607 5596 5587 5585 5584 5585 5587 5586 5584 5584 5582 5582 5583 5586 5588 5590 5593 5594 5591 5590 5587 5584 5588 5591 5594 5597 5597
5616 5618 5617 5612 5611 5613 5605 5612 5607 5604 5592 5588 5594 5578 5599 5607 5600 5589 5579 5575 5569 5567 5568 5567 5564 5566 5567 5566 5566 5567 5567 5567 5567 5567 5567 5569 5569 5567 5567 5567 5566 5570 5576 5579
5608 5617 5612 5609 5615 5614 5605 5599 5593 5585 5574 5562 5587 5582 5594 5599 5599 5577 5567 5560 5556 5549 5549 5550 5550 5548 5546 5545 5544 5545 5549 5548 5547 5548 5548 5546 5544 5546 5546 5545 5544 5545 5547 5551
5601 5601 5606 5607 5598 5593 5591 5576 5562 5554 5545 5561 5582 5575 5591 5602 5591 5578 5557 5544 5538 5533 5531 5530 5527 5525 5524 5523 5523 5525 5525 5525 5526 5527 5527 5525 5523 5522 5521 5521 5521 5522 5524 5527
5576 5578 5595 5595 5590 5580 5570 5570 5548 5533 5542 5548 5560 5566 5587 5562 5561 5551 5541 5533 5527 5520 5515 5512 5510 5507 5507 5505 5503 5502 5501 5501 5502 5503 5503 5503 5503 5501 5500 5496 5495 5496 5498 5501
5568 5572 5580 5580 5580 5576 5565 5553 5557 5533 5518 5504 5546 5567 5546 5545 5536 5531 5524 5518 5512 5509 5503 5498 5493 5489 5487 5485 5482 5480 5481 5481 5481 5480 5477 5476 5475 5475 5475 5477 5476 5471 5472 5475
5566 5547 5568 5562 5562 5555 5553 5550 5530 5515 5487 5483 5532 5547 5548 5528 5524 5516 5507 5504 5497 5492 5487 5482 5477 5473 5466 5464 5462 5462 5461 5457 5457 5456 5457 5453 5451 5450 5449 5448 5447 5445 5451 5454
5551 5543 5545 5550 5543 5540 5531 5530 5529 5521 5502 5497 5481 5525 5544 5531 5514 5501 5491 5488 5485 5480 5474 5466 5459 5455 5448 5443 5440 5439 5436 5433 5433 5432 5429 5427 5430 5427 5425 5422 5419 5425 5429 5430
5536 5518 5493 5528 5535 5533 5529 5526 5518 5506 5500 5483 5495 5511 5523 5510 5491 5484 5478 5474 5464 5459 5450 5443 5437 5433 5428 5421 5417 5415 5414 5411 5407 5403 5401 5401 5402 5399 5395 5395 5397 5398 5401 5407
5524 5497 5449 5484 5509 5509 5504 5503 5496 5483 5463 5462 5453 5480 5493 5481 5474 5469 5462 5452 5444 5436 5429 5424 5418 5412 5407 5403 5399 5394 5391 5389 5387 5383 5380 5376 5379 5375 5373 5374 5376 5375 5378 5380
5507 5490 5466 5480 5483 5479 5470 5476 5474 5461 5434 5429 5451 5462 5483 5486 5459 5451 5441 5431 5422 5416 5411 5405 5398 5393 5387 5382 5378 5374 5370 5365 5363 5359 5356 5353 5350 5349 5351 5350 5349 5349 5350 5351
5481 5446 5461 5466 5459 5446 5440 5450 5457 5430 5439 5412 5451 5443 5462 5455 5440 5433 5422 5413 5407 5401 5395 5388 5382 5375 5369 5365 5361 5356 5350 5346 5342 5335 5330 5327 5326 5324 5324 5322 5320 5321 5325 5326
5458 5418 5418 5397 5434 5428 5422 5443 5432 5433 5429 5424 5429 5426 5442 5423 5417 5407 5402 5397 5390 5381 5378 5373 5362 5356 5351 5347 5342 5335 5327 5320 5314 5307 5302 5299 5295 5296 5296 5299 5301 5301 5300 5300
5426 5399 5359 5363 5409 5383 5366 5422 5429 5426 5433 5423 5405 5409 5376 5388 5394 5382 5378 5376 5369 5363 5359 5353 5343 5332 5324 5318 5313 5305 5295 5289 5284 5280 5278 5274 5270 5269 5266 5267 5268 5270 5271 5275
5402 5378 5342 5324 5320 5313 5411 5419 5416 5407 5411 5390 5368 5346 5352 5359 5365 5362 5358 5352 5342 5336 5332 5325 5317 5310 5301 5291 5282 5275 5269 5264 5261 5256 5250 5246 5243 5240 5239 5240 5241 5243 5243 5248
5396 5380 5319 5315 5277 5335 5395 5400 5390 5374 5374 5356 5352 5346 5349 5350 5347 5338 5338 5330 5325 5317 5310 5305 5296 5288 5278 5271 5262 5256 5250 5245 5241 5238 5232 5224 5217 5214 5211 5209 5210 5210 5210 5218
5373 5368 5342 5246 5290 5290 5361 5381 5372 5353 5338 5338 5321 5329 5325 5322 5291 5305 5312 5309 5305 5300 5294 5281 5272 5265 5259 5251 5245 5239 5232 5226 5221 5217 5212 5204 5197 5191 5188 5185 5184 5183 5182 5190
5303 5290 5333 5336 5293 5299 5345 5345 5345 5296 5327 5311 5311 5315 5308 5298 5294 5301 5302 5295 5293 5287 5276 5265 5258 5250 5240 5233 5227 5220 5214 5208 5202 5196 5190 5183 5176 5172 5167 5166 5162 5160 5160 5163
5325 5296 5279 5238 5237 5282 5329 5328 5314 5320 5318 5307 5307 5304 5299 5295 5293 5287 5285 5282 5275 5266 5258 5250 5239 5231 5223 5216 5208 5200 5195 5191 5183 5176 5168 5162 5158 5152 5150 5146 5146 5141 5140 5142
5311 5330 5302 5310 5300 5324 5310 5315 5315 5307 5294 5295 5291 5291 5284 5280 5281 5278 5274 5267 5259 5250 5243 5232 5223 5214 5207 5199 5191 5183 5178 5173 5165 5155 5149 5146 5144 5139 5134 5131 5132 5131 5130 5131
5319 5329 5306 5306 5323 5314 5307 5304 5300 5297 5289 5290 5287 5283 5276 5271 5271 5267 5261 5254 5245 5235 5226 5216 5207 5197 5188 5180 5174 5165 5162 5157 5147 5140 5139 5136 5133 5130 5125 5122 5120 5122 5124 5126
5316 5306 5310 5300 5308 5304 5301 5298 5298 5289 5283 5280 5278 5274 5274 5266 5262 5258 5248 5234 5227 5218 5209 5197 5189 5182 5174 5167 5159 5152 5149 5143 5138 5134 5131 5129 5126 5122 5120 5116 5114 5115 5117 5118
5318 5317 5296 5293 5310 5292 5296 5295 5288 5281 5278 5274 5269 5266 5261 5255 5249 5240 5227 5219 5209 5198 5189 5179 5171 5164 5156 5151 5146 5140 5136 5131 5125 5124 5124 5123 5121 5119 5116 5114 5114 5110 5112 5115